THURAYA-2

Last updated on Thu Nov 21 2024 00:02:40 GMT+0000 (Coordinated Universal Time)

1 27825U 03026A 24324.87513767 .00000125 00000+0 00000+0 0 9990 2 27825 7.9490 33.8677 0002574 242.0631 142.5318 1.00273807 78596
UTC large
Height (km)
Speed (km/s)
/
Latitude / Longitude
Inclination (degrees)
Orbital Period (minutes)
Azimuth
Elevation
Range (km)
Doppler Factor

Next 0 passes for location: London (51.5072 / 0.1276)

Sorry there are no passes over London.